TimeMST,TemperatureF,Dew PointF,Humidity,Sea Level PressureIn,VisibilityMPH,Wind Direction,Wind SpeedMPH,Gust SpeedMPH,PrecipitationIn,Events,Conditions,WindDirDegrees,DateUTC
12:15 AM,10.4,3.2,73,30.07,10.0,SE,10.4,-,N/A,,Clear,130,2013-01-24 07:15:00
12:35 AM,10.4,3.2,73,30.04,10.0,ESE,10.4,-,N/A,,Clear,120,2013-01-24 07:35:00
1:15 AM,10.4,3.2,73,30.02,10.0,ESE,10.4,-,N/A,,Clear,110,2013-01-24 08:15:00
1:35 AM,10.4,3.2,73,30.01,10.0,ESE,9.2,-,N/A,,Clear,110,2013-01-24 08:35:00
1:55 AM,12.2,6.8,79,30.00,10.0,SE,11.5,-,N/A,,Clear,130,2013-01-24 08:55:00
2:15 AM,14.0,6.8,73,30.00,10.0,SSE,16.1,19.6,N/A,,Scattered Clouds,150,2013-01-24 09:15:00
2:35 AM,14.0,6.8,73,30.00,10.0,SSE,18.4,23.0,N/A,,Mostly Cloudy,150,2013-01-24 09:35:00
2:55 AM,14.0,6.8,73,29.99,10.0,SSE,17.3,23.0,N/A,,Overcast,150,2013-01-24 09:55:00
3:35 AM,14.0,6.8,73,29.98,10.0,SSE,12.7,17.3,N/A,,Overcast,150,2013-01-24 10:35:00
3:55 AM,14.0,6.8,73,29.96,10.0,SE,11.5,18.4,N/A,,Overcast,140,2013-01-24 10:55:00
4:15 AM,14.0,6.8,73,29.95,10.0,SE,13.8,17.3,N/A,,Scattered Clouds,140,2013-01-24 11:15:00
4:35 AM,14.0,6.8,73,29.93,10.0,SSE,16.1,-,N/A,,Scattered Clouds,150,2013-01-24 11:35:00
4:55 AM,14.0,6.8,73,29.93,10.0,SSE,16.1,-,N/A,,Scattered Clouds,160,2013-01-24 11:55:00
5:15 AM,14.0,6.8,73,29.92,10.0,SSE,15.0,-,N/A,,Partly Cloudy,160,2013-01-24 12:15:00
5:35 AM,14.0,8.6,79,29.90,10.0,SSE,13.8,-,N/A,,Clear,150,2013-01-24 12:35:00
5:55 AM,14.0,8.6,79,29.90,10.0,SSE,15.0,-,N/A,,Clear,160,2013-01-24 12:55:00
6:15 AM,14.0,8.6,79,29.91,10.0,SSE,11.5,-,N/A,,Partly Cloudy,160,2013-01-24 13:15:00
6:35 AM,15.8,8.6,73,29.89,10.0,SSE,13.8,-,N/A,,Clear,160,2013-01-24 13:35:00
6:55 AM,15.8,6.8,68,29.88,10.0,South,13.8,-,N/A,,Clear,170,2013-01-24 13:55:00
7:16 AM,15.8,8.6,73,29.87,10.0,South,13.8,-,N/A,,Mostly Cloudy,170,2013-01-24 14:16:00
7:35 AM,15.8,8.6,73,29.87,10.0,South,9.2,-,N/A,,Scattered Clouds,180,2013-01-24 14:35:00
7:55 AM,15.8,8.6,73,29.88,10.0,South,11.5,-,N/A,,Clear,180,2013-01-24 14:55:00
8:15 AM,15.8,10.4,79,29.87,10.0,South,9.2,-,N/A,,Clear,180,2013-01-24 15:15:00
8:35 AM,15.8,10.4,79,29.87,10.0,South,11.5,-,N/A,,Clear,180,2013-01-24 15:35:00
8:55 AM,15.8,10.4,79,29.86,10.0,South,11.5,-,N/A,,Clear,180,2013-01-24 15:55:00
9:15 AM,17.6,10.4,73,29.86,10.0,South,13.8,-,N/A,,Clear,180,2013-01-24 16:15:00
9:35 AM,17.6,12.2,79,29.87,10.0,South,6.9,-,N/A,,Partly Cloudy,180,2013-01-24 16:35:00
9:55 AM,19.4,12.2,74,29.88,10.0,SSW,9.2,-,N/A,,Partly Cloudy,200,2013-01-24 16:55:00
10:15 AM,21.2,12.2,68,29.89,10.0,South,10.4,-,N/A,,Clear,190,2013-01-24 17:15:00
10:35 AM,23.0,15.8,74,29.89,10.0,South,9.2,-,N/A,,Clear,190,2013-01-24 17:35:00
10:55 AM,23.0,15.8,74,29.88,10.0,South,10.4,-,N/A,,Clear,190,2013-01-24 17:55:00
11:15 AM,24.8,15.8,69,29.87,10.0,South,10.4,-,N/A,,Clear,190,2013-01-24 18:15:00
11:35 AM,26.6,17.6,69,29.87,10.0,South,13.8,-,N/A,,Mostly Cloudy,190,2013-01-24 18:35:00
11:56 AM,26.6,17.6,69,29.87,10.0,South,13.8,-,N/A,,Mostly Cloudy,190,2013-01-24 18:56:00
12:15 PM,28.4,19.4,69,29.86,10.0,SSW,12.7,-,N/A,,Partly Cloudy,200,2013-01-24 19:15:00
12:35 PM,30.2,21.2,69,29.85,10.0,South,9.2,-,N/A,,Clear,190,2013-01-24 19:35:00
12:55 PM,33.8,23.0,65,29.85,10.0,South,9.2,-,N/A,,Clear,190,2013-01-24 19:55:00
1:15 PM,35.6,24.8,65,29.85,10.0,SSW,10.4,-,N/A,,Clear,210,2013-01-24 20:15:00
1:35 PM,37.4,26.6,65,29.85,10.0,SW,11.5,-,N/A,,Clear,220,2013-01-24 20:35:00
2:15 PM,39.2,26.6,61,29.86,10.0,WNW,23.0,29.9,N/A,,Clear,290,2013-01-24 21:15:00
2:35 PM,39.2,26.6,61,29.87,10.0,WNW,23.0,31.1,N/A,,Clear,300,2013-01-24 21:35:00
2:55 PM,37.4,26.6,65,29.87,10.0,WNW,23.0,29.9,N/A,,Clear,290,2013-01-24 21:55:00
3:55 PM,35.6,26.6,70,29.90,10.0,WNW,17.3,-,N/A,,Mostly Cloudy,290,2013-01-24 22:55:00
4:35 PM,32.0,24.8,75,29.93,10.0,WNW,15.0,-,N/A,,Clear,300,2013-01-24 23:35:00
4:55 PM,32.0,24.8,75,29.94,10.0,WNW,18.4,27.6,N/A,,Clear,300,2013-01-24 23:55:00
5:15 PM,30.2,24.8,80,29.95,10.0,WNW,19.6,26.5,N/A,,Clear,300,2013-01-25 00:15:00
5:35 PM,28.4,23.0,80,29.96,10.0,WNW,15.0,-,N/A,,Clear,300,2013-01-25 00:35:00
5:55 PM,28.4,21.2,74,29.96,10.0,WNW,13.8,-,N/A,,Clear,290,2013-01-25 00:55:00
6:15 PM,28.4,23.0,80,29.97,10.0,WNW,15.0,-,N/A,,Clear,290,2013-01-25 01:15:00
6:55 PM,26.6,21.2,80,29.98,10.0,West,12.7,-,N/A,,Clear,280,2013-01-25 01:55:00
7:15 PM,26.6,21.2,80,29.98,10.0,West,15.0,-,N/A,,Clear,280,2013-01-25 02:15:00
7:35 PM,28.4,23.0,80,29.98,10.0,West,15.0,-,N/A,,Clear,280,2013-01-25 02:35:00
8:15 PM,28.4,21.2,74,29.99,10.0,West,16.1,-,N/A,,Clear,280,2013-01-25 03:15:00
8:35 PM,28.4,21.2,74,29.99,10.0,WNW,12.7,-,N/A,,Clear,290,2013-01-25 03:35:00
8:55 PM,28.4,21.2,74,29.99,10.0,WNW,20.7,26.5,N/A,,Clear,290,2013-01-25 03:55:00
9:15 PM,28.4,21.2,74,30.00,10.0,WNW,16.1,23.0,N/A,,Clear,290,2013-01-25 04:15:00
9:35 PM,28.4,19.4,69,30.02,10.0,West,13.8,-,N/A,,Clear,280,2013-01-25 04:35:00
9:55 PM,26.6,19.4,74,30.03,10.0,WNW,15.0,-,N/A,,Clear,290,2013-01-25 04:55:00
10:15 PM,26.6,17.6,69,30.03,10.0,West,15.0,-,N/A,,Clear,270,2013-01-25 05:15:00
10:35 PM,24.8,17.6,74,30.04,10.0,West,13.8,-,N/A,,Clear,280,2013-01-25 05:35:00
10:55 PM,24.8,19.4,80,30.04,10.0,WNW,12.7,-,N/A,,Clear,290,2013-01-25 05:55:00
11:15 PM,24.8,17.6,74,30.04,10.0,WNW,11.5,-,N/A,,Clear,290,2013-01-25 06:15:00
11:35 PM,23.0,15.8,74,30.04,10.0,West,9.2,-,N/A,,Clear,280,2013-01-25 06:35:00
11:55 PM,23.0,17.6,80,30.04,10.0,WNW,11.5,-,N/A,,Clear,290,2013-01-25 06:55:00